Accueil
METAR-TAF:

METAR-TAF

Aéroports :

Turin, Italie

latitude: 45-05-20N, longitude: 007-36-20E, altitude: 288 m

Observation

Le bulletin a été fait il y a 1 heure et 15 minutes, à 16:50 UTC
Vent 3 kt de nord/nord-est, variant entre nord/nord-ouest et est
Température 27°C
Humidité 54%
Pression 1014 hPa
Visibilité 10 km ou plus
Nuages épars à une hauteur de 3000 ft

METAR: LIMA 281650Z 03003KT 340V100 9999 SCT030 27/17 Q1014

Heure: 20:05 (18:05 UTC)


TAF: absent

Observations et prévisions météorologiques de plus de 4000 aéroports (messages METAR et TAF).

Les stations disponibles sont représentées par des disques jaunes et rouges sur la carte.

Passer la souris dessus pour voir le nom de la station.

Cliquer dessus pour voir les observations et prévisions météorologiques.

Pour changer de carte: cliquez sur les boutons verts avec une croix noire pour zoomer, sur le bouton vert avec un tiret pour effectuer un zoom arrière, ou sur les flèches vertes pour les cartes adjacentes.


METAR-TAF: